Flag for Germany Weather past 2 weeks in Dillenburg, Hesse, Germany

Now
55 °F

Passing clouds.


Feels Like: 53 °F
Forecast: 53 / 68 °F
Wind: 8 mph from North

Location: Hessen

Current Time: Sep 2, 2014 at 12:11:15 PM

Latest Report: Sep 2, 2014 at 11:20 AM


Visibility: N/A

Pressure: 30.18 "Hg

Humidity: 77%

Dew point: 48 °F

Location of DillenburgLocation

Historic Weather in Dillenburg — Graph

°F

Dillenburg temperature yesterday

Maximum temperature yesterday: 55 °F (at 1:50 PM)
Minimum temperature yesterday: 48 °F (at 7:20 AM)
Average temperature yesterday: 53 °F

Past Weeks' High & Low Weather Summary

 TemperatureHumidityPressure
High66 °F (Aug 28, 2:50 PM)100% (Aug 19, 3:20 PM)30.18 "Hg (Aug 19, 3:20 PM)
Low45 °F (Aug 20, 7:50 AM)51% (Aug 18, 4:50 PM)29.65 "Hg (Aug 26, 6:50 AM)
Average55 °F83%29.98 "Hg
* Reported Aug 18 10:20 AM — Sep 2 10:50 AM, Dillenburg, Weather by CustomWeather, © 2014

Note: Actual official high and low records may vary slightly from our data, if they occured in-between our weather recording intervals... More about our weather records

Advertising

Dillenburg weather history for previous 24 hours

 ConditionsComfort  
Time TempWeatherWind HumidityBarometerVisibility
10:50 AM
Sep 2
57 °FPassing clouds.9 mph77%30.18 "HgN/A
10:20 AM55 °FPassing clouds.9 mph82%30.18 "HgN/A
9:50 AM55 °FPassing clouds.12 mph88%30.18 "HgN/A
9:20 AM54 °FClear.8 mph94%30.18 "Hg5 mi
8:50 AM54 °FClear.7 mph94%30.18 "Hg4 mi
8:20 AM52 °FFog.7 mph100%30.15 "Hg2 mi
7:50 AM52 °FFog.6 mph100%30.15 "Hg2 mi
7:20 AM50 °FFog.5 mph100%30.15 "Hg2 mi
9:50 PM
Sep 1
54 °FClear.3 mph94%30.15 "Hg10 mi
9:20 PM52 °FClear.5 mph100%30.15 "Hg10 mi
8:50 PM54 °FSunny.6 mph94%30.15 "Hg10 mi
8:20 PM55 °FSunny.5 mph88%30.15 "Hg10 mi
7:50 PM55 °FPartly sunny.5 mph88%30.15 "HgN/A
7:20 PM55 °FBroken clouds.3 mph88%30.15 "HgN/A
6:50 PM55 °FBroken clouds.5 mph88%30.15 "HgN/A
6:20 PM55 °FBroken clouds.5 mph88%30.15 "HgN/A
5:50 PM55 °FPartly sunny.6 mph88%30.15 "HgN/A
5:20 PM55 °FPartly sunny.5 mph88%30.15 "HgN/A
4:50 PM55 °FBroken clouds.6 mph88%30.15 "HgN/A
4:20 PM55 °FBroken clouds.8 mph82%30.15 "HgN/A
3:50 PM55 °FSmoke.2 mph82%30.15 "HgN/A
3:20 PM55 °FPartly sunny.7 mph88%30.15 "HgN/A
2:50 PM55 °FBroken clouds.7 mph82%30.15 "HgN/A
2:20 PM54 °FBroken clouds.6 mph88%30.15 "HgN/A
1:50 PM55 °FBroken clouds.8 mph82%30.15 "HgN/A
1:20 PM54 °FBroken clouds.7 mph88%30.15 "HgN/A
12:50 PM52 °FPartly sunny.8 mph94%30.15 "HgN/A
12:20 PM54 °FBroken clouds.7 mph88%30.15 "HgN/A
Weather by CustomWeather, © 2014

See weather overviewHow to use our weather pages